Location: Auckland
(36.8670°S, 174.7670°E)
Time: 12:08:04
(UTC+12:00)

A-11 Canister half - Pass Details

Date: 30 July 2019
Orbit: 1526 x 1683 km, 47.3° (Epoch: 23 August)

Event Time Altitude Azimuth Distance (km) Brightness Sun altitude
Rises 14:32:37 0° 243° (WSW) 4,807 11.7 27.2°
Reaches altitude 10° 14:36:09 10° 252° (WSW) 3,841 11.4 26.8°
Maximum altitude 14:44:19 31° 309° (NW) 2,583 12.3 25.8°
Drops below altitude 10° 14:52:40 10° 6° (N) 3,911 11.9 24.8°
Sets 14:56:20 0° 16° (NNE) 4,906 12.1 24.4°
